User: anonymous   Login
Location: Hurstbourne Priors
(51.2000°N, 1.3667°W)
Time: 20:28:58
(UTC+00:00)
Language:

STARLINK-1230 - Orbit

View from above orbital plane
View from above orbital plane
View from above satellite
View from above satellite

Ground track
Ground track

The orbit data is extracted from the following two-line orbital elements,

1 45189U 20012M   20185.66668981 -.00028589  00000-0 -19495-2 0  9992
2 45189  52.9985   1.7597 0001561  97.9715 118.2343 15.05605891 21158
Epoch (UTC): 03 July 2020 16:00:02
Eccentricity: 0.0001561
inclination: 52.9985°
perigee height: 548 km
apogee height: 551 km
right ascension of ascending node: 1.7597°
argument of perigee: 97.9715°
revolutions per day: 15.05605891
mean anomaly at epoch: 118.2343°
orbit number at epoch: 2115

The dashed part of the orbit path shows where the satellite is in the earth's shadow,  

DLR